Date String (YYYY-MM-DD hh:mm:ss) UTC,Instrument flags,absolute air pressure of the measurement (hPa),sample flow rate (lpm),inlet stack bypass flow (lpm),air temperature of the measurement (°C),ambient temperature measured by the external sensor (°C),aerosol sample conditioner tube jacket temperature (°C),OPC LED temperature (°C),internal box temperature (°C),relative humidity of the measurement (%),span deviation,mass concentration of particles derived from Lorenz-Mie calculation of OPC scattering (μg/m³),mass concentration of particles derived from Lorenz-Mie calculation of OPC scattering (μg/m³),mass concentration of particles derived from Lorenz-Mie calculation of OPC scattering (μg/m³)
DateTimeUTC,F1_M11,P_M11,Q1_M11,Q2_M11,T1_M11,T2_M11,T3_M11,T4_M11,T5_M11,U1_M11,ZSPAN_M11,X0_M11,X2_M11,X1_M11
2023-06-07 16:00:00,SystemResetWarning,0830.0,5.01,000.00,029.7,025.0,000.0,038.1,030.9,28.4,0000.0,0007.77,0004.12,0003.78
2023-06-07 16:01:00,SystemResetWarning,0830.0,5.00,000.00,029.5,025.4,000.0,038.1,030.7,28.4,0000.0,0007.78,0004.11,0003.77
2023-06-07 16:02:00,SystemResetWarning,0830.0,5.00,000.00,029.5,025.8,000.0,038.1,030.7,28.2,0000.0,0007.78,0004.14,0003.77
2023-06-07 16:03:00,SystemResetWarning,0830.0,5.00,000.00,029.5,026.2,000.0,038.1,030.7,26.7,0000.0,0007.82,0004.18,0003.78
2023-06-07 16:04:00,SystemResetWarning,0830.0,5.00,000.00,029.4,026.5,000.0,038.1,030.7,27.3,0000.0,0007.70,0004.23,0003.80
2023-06-07 16:05:00,SystemResetWarning,0830.0,5.00,000.00,029.4,026.8,000.0,038.0,030.8,27.0,0000.0,0007.71,0004.26,0003.82
2023-06-07 16:06:00,SystemResetWarning,0830.0,5.00,000.00,029.4,027.1,000.0,038.0,030.8,28.0,0000.0,0007.67,0004.24,0003.82
2023-06-07 16:07:00,SystemResetWarning,0830.0,5.00,000.00,029.4,027.3,000.0,038.0,030.8,28.0,0000.0,0007.69,0004.24,0003.79
2023-06-07 16:08:00,SystemResetWarning,0830.0,4.99,000.00,029.4,027.5,000.0,038.0,030.8,28.9,0000.0,0008.10,0004.24,0003.78
2023-06-07 16:09:00,SystemResetWarning,0830.0,5.00,000.00,029.4,027.6,000.0,038.0,030.9,29.3,0000.0,0008.16,0004.22,0003.76
2023-06-07 16:10:00,SystemResetWarning,0830.0,5.00,000.00,029.5,027.7,000.0,038.0,030.9,28.3,0000.0,0008.38,0004.20,0003.75
2023-06-07 16:11:00,SystemResetWarning,0830.0,5.00,000.00,029.5,027.8,000.0,038.0,030.9,27.9,0000.0,0008.43,0004.20,0003.74
2023-06-07 16:12:00,SystemResetWarning,0830.0,5.00,000.00,029.5,027.9,000.0,038.0,031.0,26.4,0000.0,0008.42,0004.18,0003.72
2023-06-07 16:13:00,SystemResetWarning,0830.0,5.00,000.00,029.5,028.0,000.0,038.0,031.0,25.3,0000.0,0008.48,0004.15,0003.68
2023-06-07 16:14:00,SystemResetWarning,0830.0,5.00,000.00,029.5,028.1,000.0,038.1,031.0,24.7,0000.0,0008.43,0004.09,0003.64
2023-06-07 16:15:00,SystemResetWarning,0830.0,5.01,000.00,029.6,028.1,000.0,038.1,031.0,25.5,0000.0,0008.56,0004.04,0003.61
2023-06-07 16:16:00,SystemResetWarning,0830.0,5.00,000.00,029.6,028.2,000.0,038.1,031.1,25.7,0000.0,0008.39,0004.00,0003.58
2023-06-07 16:17:00,SystemResetWarning,0830.0,5.00,000.00,029.6,028.2,000.0,038.1,031.2,27.5,0000.0,0008.50,0004.02,0003.57
2023-06-07 16:18:00,SystemResetWarning,0830.1,4.99,000.00,029.7,027.4,000.0,038.1,031.3,28.2,0000.0,0009.00,0004.00,0003.57
2023-06-07 16:19:00,SystemResetWarning,0830.1,5.00,000.00,029.7,025.4,000.0,038.0,031.2,28.9,0000.0,0009.77,0004.01,0003.58
2023-06-07 16:20:00,SystemResetWarning,0830.0,5.00,000.00,029.6,024.7,000.0,038.0,031.1,28.2,0000.0,0009.74,0004.05,0003.59
2023-06-07 16:21:00,SystemResetWarning,0830.0,5.00,000.00,029.5,025.0,000.0,038.0,030.7,28.9,0000.0,0009.19,0004.08,0003.60
2023-06-07 16:22:00,SystemResetWarning,0830.0,5.01,000.00,029.4,025.3,000.0,038.0,030.6,29.8,0000.0,0009.88,0004.14,0003.61
2023-06-07 16:23:00,SystemResetWarning,0830.0,5.00,000.00,029.4,025.8,000.0,038.0,030.6,29.1,0000.0,0010.34,0004.20,0003.62
2023-06-07 16:24:00,SystemResetWarning,0830.0,4.99,000.00,029.4,026.2,000.0,038.0,030.6,29.1,0000.0,0010.37,0004.24,0003.66
2023-06-07 16:25:00,SystemResetWarning,0830.0,5.00,000.00,029.3,026.5,000.0,038.0,030.7,29.3,0000.0,0010.52,0004.28,0003.69
2023-06-07 16:26:00,SystemResetWarning,0830.0,5.00,000.00,029.3,026.8,000.0,037.9,030.7,28.3,0000.0,0010.58,0004.31,0003.72
2023-06-07 16:27:00,SystemResetWarning,0830.0,5.00,000.00,029.3,027.1,000.0,037.9,030.8,28.2,0000.0,0011.07,0004.35,0003.74
2023-06-07 16:28:00,SystemResetWarning,0830.0,4.99,000.00,029.3,027.3,000.0,037.9,030.8,29.1,0000.0,0011.48,0004.35,0003.76
2023-06-07 16:29:00,SystemResetWarning,0830.0,5.00,000.00,029.3,027.4,000.0,037.9,030.8,28.9,0000.0,0010.95,0004.37,0003.77
2023-06-07 16:30:00,SystemResetWarning,0830.0,5.01,000.00,029.4,027.6,000.0,037.9,030.8,28.9,0000.0,0009.90,0004.39,0003.78
2023-06-07 16:31:00,SystemResetWarning,0830.0,5.01,000.00,029.4,027.7,000.0,037.9,030.9,28.3,0000.0,0010.40,0004.36,0003.78
2023-06-07 16:32:00,SystemResetWarning,0830.0,5.00,000.00,029.4,027.8,000.0,038.0,030.9,27.6,0000.0,0010.63,0004.34,0003.78
2023-06-07 16:33:00,SystemResetWarning,0830.0,4.99,000.00,029.4,027.9,000.0,038.0,030.9,27.6,0000.0,0009.92,0004.28,0003.78
2023-06-07 16:34:00,SystemResetWarning,0830.0,5.00,000.00,029.4,027.9,000.0,038.0,030.9,27.7,0000.0,0009.61,0004.27,0003.80
2023-06-07 16:35:00,SystemResetWarning,0830.0,4.99,000.00,029.5,028.0,000.0,038.0,030.9,27.4,0000.0,0009.58,0004.27,0003.81
2023-06-07 16:36:00,SystemResetWarning,0830.0,5.00,000.00,029.5,028.0,000.0,038.0,031.0,28.1,0000.0,0009.49,0004.27,0003.82
2023-06-07 16:37:00,SystemResetWarning,0830.0,5.00,000.00,029.5,028.1,000.0,038.0,031.0,28.0,0000.0,0009.32,0004.27,0003.84
2023-06-07 16:38:00,SystemResetWarning,0830.0,4.99,000.00,029.5,027.7,000.0,038.0,031.1,27.5,0000.0,0008.77,0004.26,0003.84
2023-06-07 16:39:00,SystemResetWarning,0830.0,5.00,000.00,029.6,025.8,000.0,037.9,031.1,27.1,0000.0,0008.29,0004.26,0003.85
2023-06-07 16:40:00,SystemResetWarning,0830.0,5.01,000.00,029.5,024.7,000.0,037.9,031.0,27.2,0000.0,0008.78,0004.27,0003.84
2023-06-07 16:41:00,SystemResetWarning,0830.0,5.01,000.00,029.5,024.8,000.0,037.9,030.8,26.6,0000.0,0008.83,0004.24,0003.83
2023-06-07 16:42:00,SystemResetWarning,0830.0,5.00,000.00,029.4,025.1,000.0,037.9,030.5,27.1,0000.0,0008.21,0004.22,0003.83
2023-06-07 16:43:00,SystemResetWarning,0830.0,5.00,000.00,029.3,025.6,000.0,037.9,030.5,27.3,0000.0,0007.79,0004.18,0003.82
2023-06-07 16:44:00,SystemResetWarning,0829.9,5.00,000.00,029.3,026.0,000.0,037.9,030.5,28.1,0000.0,0007.84,0004.18,0003.81
2023-06-07 16:45:00,SystemResetWarning,0829.9,5.00,000.00,029.3,026.3,000.0,037.9,030.6,29.5,0000.0,0008.19,0004.20,0003.81
2023-06-07 16:46:00,SystemResetWarning,0830.0,4.99,000.00,029.3,026.7,000.0,037.9,030.6,29.9,0000.0,0008.76,0004.19,0003.80
2023-06-07 16:47:00,SystemResetWarning,0829.9,5.00,000.00,029.3,026.9,000.0,037.8,030.7,29.3,0000.0,0008.75,0004.21,0003.83
2023-06-07 16:48:00,SystemResetWarning,0829.9,5.00,000.00,029.3,027.1,000.0,037.8,030.7,29.5,0000.0,0008.71,0004.22,0003.85
2023-06-07 16:49:00,SystemResetWarning,0829.9,5.00,000.00,029.3,027.3,000.0,037.8,030.7,28.9,0000.0,0009.23,0004.26,0003.87
2023-06-07 16:50:00,SystemResetWarning,0829.9,5.01,000.00,029.3,027.5,000.0,037.9,030.8,28.0,0000.0,0009.56,0004.31,0003.92
2023-06-07 16:51:00,SystemResetWarning,0830.0,5.00,000.00,029.3,027.6,000.0,037.9,030.8,28.1,0000.0,0010.06,0004.36,0003.96
2023-06-07 16:52:00,SystemResetWarning,0829.9,5.00,000.00,029.3,027.7,000.0,037.9,030.8,27.6,0000.0,0010.21,0004.42,0004.01
2023-06-07 16:53:00,SystemResetWarning,0829.9,4.98,000.00,029.3,027.8,000.0,037.9,030.9,27.8,0000.0,0010.23,0004.45,0004.04
2023-06-07 16:54:00,SystemResetWarning,0829.9,5.00,000.00,029.4,027.9,000.0,037.9,030.9,27.9,0000.0,0010.40,0004.53,0004.07
2023-06-07 16:55:00,SystemResetWarning,0829.9,5.01,000.00,029.4,028.0,000.0,037.9,030.9,28.3,0000.0,0010.41,0004.57,0004.10
2023-06-07 16:56:00,SystemResetWarning,0829.9,5.01,000.00,029.4,028.0,000.0,037.9,030.9,27.9,0000.0,0010.05,0004.59,0004.13
2023-06-07 16:57:00,SystemResetWarning,0829.9,5.00,000.00,029.5,028.1,000.0,037.9,031.0,29.1,0000.0,0009.43,0004.60,0004.15
2023-06-07 16:58:00,SystemResetWarning,0829.9,4.99,000.00,029.5,028.0,000.0,037.9,031.1,27.6,0000.0,0009.53,0004.60,0004.15
2023-06-07 16:59:00,SystemResetWarning,0829.9,4.98,000.00,029.5,026.3,000.0,037.9,031.1,27.4,0000.0,0010.48,0004.59,0004.14
